GW0366 Weather Reports


time (UTC)temp
C
wind
direction
speed
KPH
gust
KPH
rain 1hr
cm
rain 24hr
cm
rain mn
cm
humidity
%
barometer
mb
20260506155854 25 226 4.8 8.0 0.00 0.00 0.00 74 1016.6
20260506155350 24 204 0.0 0.0 0.00 0.00 0.00 73 1016.7
20260506153508 25 220 6.4 8.0 0.00 0.00 0.00 70 1017.1
20260506153005 25 212 3.2 3.2 0.00 0.00 0.00 72 1016.7
20260506152502 25 199 4.8 4.8 0.00 0.00 0.00 71 1016.9
20260506152000 25 194 3.2 3.2 0.00 0.00 0.00 71 1016.7
20260506151458 25 186 0.0 0.0 0.00 0.00 0.00 70 1016.8
20260506150955 25 201 3.2 3.2 0.00 0.00 0.00 70 1016.8
20260506150450 25 213 4.8 4.8 0.00 0.00 0.00 73 1017.0
20260506145948 25 198 4.8 11.3 0.00 0.00 0.00 71 1016.8
20260506145444 25 199 0.0 0.0 0.00 0.00 0.00 72 1016.8
20260506144942 24 210 3.2 3.2 0.00 0.00 0.00 73 1016.7
20260506144438 24 201 4.8 4.8 0.00 0.00 0.00 72 1016.7
20260506143937 24 214 1.6 3.2 0.00 0.00 0.00 74 1016.4
20260506143433 24 222 0.0 0.0 0.00 0.00 0.00 74 1016.3
20260506142932 24 203 1.6 3.2 0.00 0.00 0.00 73 1016.6
20260506142429 24 206 0.0 1.6 0.00 0.00 0.00 74 1016.4
20260506141927 23 206 0.0 0.0 0.00 0.00 0.00 74 1016.1
20260506141425 23 206 3.2 3.2 0.00 0.00 0.00 75 1016.4
20260506140923 23 198 3.2 3.2 0.00 0.00 0.00 75 1016.4
20260506140419 23 217 0.0 0.0 0.00 0.00 0.00 76 1016.3
20260506135917 23 192 0.0 0.0 0.00 0.00 0.00 77 1016.4
20260506135414 23 191 0.0 0.0 0.00 0.00 0.00 77 1016.4
20260506134909 23 194 0.0 0.0 0.00 0.00 0.00 78 1016.5
20260506134406 23 184 0.0 0.0 0.00 0.00 0.00 78 1016.4
20260506133903 23 194 0.0 0.0 0.00 0.00 0.00 79 1016.3
20260506133400 23 198 3.2 4.8 0.00 0.00 0.00 79 1016.1
20260506132856 23 193 1.6 3.2 0.00 0.00 0.00 78 1016.1
20260506132354 23 204 1.6 4.8 0.00 0.00 0.00 79 1016.3
20260506131852 23 220 0.0 0.0 0.00 0.00 0.00 79 1016.1
20260506131347 22 194 0.0 0.0 0.00 0.00 0.00 79 1016.2
20260506130845 22 191 0.0 0.0 0.00 0.00 0.00 79 1015.9
20260506130341 22 218 0.0 0.0 0.00 0.00 0.00 79 1016.1
20260506125839 22 202 0.0 0.0 0.00 0.00 0.00 80 1016.1
20260506125337 22 194 0.0 0.0 0.00 0.00 0.00 82 1015.8
20260506124835 22 213 0.0 0.0 0.00 0.00 0.00 82 1016.0
20260506124332 22 214 0.0 0.0 0.00 0.00 0.00 82 1016.0
20260506123829 22 204 0.0 0.0 0.00 0.00 0.00 83 1016.2
20260506123328 22 204 0.0 0.0 0.00 0.00 0.00 84 1015.6
20260506122825 21 204 0.0 0.0 0.00 0.00 0.00 84 1016.0
20260506122321 21 201 0.0 0.0 0.00 0.00 0.00 85 1016.0
20260506121820 21 200 0.0 0.0 0.00 0.00 0.00 85 1015.9
20260506121317 21 200 0.0 0.0 0.00 0.00 0.00 85 1015.9
20260506120814 21 200 0.0 1.6 0.00 0.00 0.00 86 1016.0
20260506120312 21 197 0.0 0.0 0.00 0.00 0.00 86 1015.8
20260506115809 21 197 0.0 0.0 0.00 0.00 0.00 87 1015.9
20260506115307 20 196 0.0 0.0 0.00 0.00 0.00 89 1015.7
20260506114804 20 196 0.0 0.0 0.00 0.00 0.00 90 1015.6
20260506114302 20 196 0.0 0.0 0.00 0.00 0.00 91 1015.5
20260506113800 20 196 0.0 0.0 0.00 0.00 0.00 92 1015.8
20260506113258 20 196 0.0 0.0 0.00 0.00 0.00 92 1015.6
20260506112754 20 196 0.0 0.0 0.00 0.00 0.00 93 1015.4
20260506112252 19 196 0.0 0.0 0.00 0.00 0.00 93 1015.2
20260506111749 19 196 0.0 0.0 0.00 0.00 0.00 93 1015.3
20260506111247 19 196 0.0 0.0 0.00 0.00 0.00 93 1015.4
20260506110743 19 196 0.0 0.0 0.00 0.00 0.00 93 1015.5
20260506110241 18 196 0.0 0.0 0.00 0.00 0.00 93 1015.5
20260506105737 18 196 0.0 0.0 0.00 0.00 0.00 93 1015.5
20260506105234 18 196 0.0 0.0 0.00 0.00 0.00 93 1015.4
20260506104732 18 196 0.0 0.0 0.00 0.00 0.00 93 1015.4
20260506104229 18 196 0.0 0.0 0.00 0.00 0.00 93 1015.2
20260506103726 18 196 0.0 0.0 0.00 0.00 0.00 92 1015.2
20260506103224 18 196 0.0 0.0 0.00 0.00 0.00 92 1015.2
20260506102721 18 196 0.0 0.0 0.00 0.00 0.00 92 1015.1
20260506102220 18 196 0.0 0.0 0.00 0.00 0.00 91 1015.3
20260506101716 18 196 0.0 0.0 0.00 0.00 0.00 91 1015.2
20260506101213 18 196 0.0 0.0 0.00 0.00 0.00 91 1015.1
20260506100711 18 196 0.0 0.0 0.00 0.00 0.00 90 1015.4
20260506100208 18 196 0.0 0.0 0.00 0.00 0.00 90 1015.0
20260506095707 18 196 0.0 0.0 0.00 0.00 0.00 89 1015.1
20260506095203 18 196 0.0 0.0 0.00 0.00 0.00 89 1015.4
20260506094700 19 196 0.0 0.0 0.00 0.00 0.00 89 1015.2
20260506094158 19 196 0.0 0.0 0.00 0.00 0.00 88 1015.0
20260506093657 19 196 0.0 0.0 0.00 0.00 0.00 88 1015.2
20260506093153 19 196 0.0 0.0 0.00 0.00 0.00 88 1014.9
20260506092651 19 196 0.0 0.0 0.00 0.00 0.00 88 1015.0
20260506092148 19 196 0.0 0.0 0.00 0.00 0.00 87 1015.1
20260506091646 19 196 0.0 0.0 0.00 0.00 0.00 87 1015.0
20260506091143 19 196 0.0 0.0 0.00 0.00 0.00 87 1015.3
20260506090641 19 196 0.0 0.0 0.00 0.00 0.00 87 1015.0
20260506090137 19 196 0.0 0.0 0.00 0.00 0.00 86 1015.1
20260506085634 19 196 0.0 0.0 0.00 0.00 0.00 86 1015.1
20260506085130 19 196 0.0 0.0 0.00 0.00 0.00 86 1015.0
20260506084627 19 196 0.0 0.0 0.00 0.00 0.00 87 1015.2
20260506084124 19 196 0.0 0.0 0.00 0.00 0.00 87 1015.1
20260506083621 19 196 0.0 0.0 0.00 0.00 0.00 87 1015.3
20260506083119 19 196 0.0 0.0 0.00 0.00 0.00 88 1015.1
20260506082615 19 196 0.0 0.0 0.00 0.00 0.00 88 1015.2
20260506082111 20 196 0.0 0.0 0.00 0.00 0.00 89 1015.3
20260506081609 20 196 0.0 0.0 0.00 0.00 0.00 89 1015.3
20260506081106 20 196 0.0 0.0 0.00 0.00 0.00 88 1015.2
20260506080604 20 196 0.0 0.0 0.00 0.00 0.00 88 1015.2
20260506073044 20 196 0.0 0.0 0.00 0.00 0.00 86 1014.9
20260506072541 20 189 0.0 0.0 0.00 0.00 0.00 86 1014.7
20260506072039 20 189 0.0 0.0 0.00 0.00 0.00 86 1015.1
20260506071537 20 189 0.0 0.0 0.00 0.00 0.00 86 1014.8
20260506071034 20 189 0.0 0.0 0.00 0.00 0.00 86 1015.0
20260506070531 20 189 0.0 0.0 0.00 0.00 0.00 86 1015.2
20260506062509 20 184 0.0 0.0 0.00 0.00 0.00 84 1015.4
20260506062005 20 178 0.0 0.0 0.00 0.00 0.00 84 1015.5
20260506061501 20 178 0.0 0.0 0.00 0.00 0.00 84 1015.2
20260506060959 20 178 0.0 0.0 0.00 0.00 0.00 84 1015.2
20260506060457 20 177 0.0 0.0 0.00 0.00 0.00 84 1015.3
20260506050926 20 178 0.0 0.0 0.00 0.00 0.00 82 1015.8
20260506050423 20 177 0.0 0.0 0.00 0.00 0.00 82 1016.1
20260506044914 20 177 0.0 0.0 0.00 0.00 0.00 80 1016.3
20260506044412 20 178 0.0 0.0 0.00 0.00 0.00 80 1016.2
20260506043909 20 177 0.0 0.0 0.00 0.00 0.00 80 1016.5
20260506043406 20 177 0.0 0.0 0.00 0.00 0.00 79 1016.2
20260506042904 20 178 0.0 0.0 0.00 0.00 0.00 78 1016.3
20260506042403 20 178 0.0 0.0 0.00 0.00 0.00 78 1016.4
20260506041900 20 178 0.0 0.0 0.00 0.00 0.00 77 1016.2
20260506041358 20 177 0.0 0.0 0.00 0.00 0.00 77 1016.2
20260506040855 20 177 0.0 0.0 0.00 0.00 0.00 77 1016.4
20260506040352 20 177 0.0 0.0 0.00 0.00 0.00 77 1016.3
20260506035848 20 177 0.0 0.0 0.00 0.00 0.00 77 1016.2
20260506035346 20 177 0.0 0.0 0.00 0.00 0.00 77 1016.2
20260506034843 20 177 0.0 0.0 0.00 0.00 0.00 77 1016.1
20260506034340 20 177 0.0 0.0 0.00 0.00 0.00 77 1016.0
20260506033837 20 177 0.0 0.0 0.00 0.00 0.00 77 1016.2
20260506033334 20 165 0.0 0.0 0.00 0.00 0.00 77 1016.0
20260506032831 20 182 0.0 0.0 0.00 0.00 0.00 77 1016.1
20260506032327 20 182 0.0 0.0 0.00 0.00 0.00 78 1016.1
20260506031825 20 182 0.0 0.0 0.00 0.00 0.00 78 1016.0
20260506031322 20 182 0.0 0.0 0.00 0.00 0.00 77 1016.2
20260506030819 20 182 0.0 0.0 0.00 0.00 0.00 76 1016.2
20260506030317 20 182 0.0 0.0 0.00 0.00 0.00 75 1016.2
20260506025814 20 182 0.0 0.0 0.00 0.00 0.00 75 1016.2
20260506025310 20 182 0.0 0.0 0.00 0.00 0.00 75 1016.2
20260506024807 20 182 0.0 0.0 0.00 0.00 0.00 75 1016.1
20260506024304 20 182 0.0 0.0 0.00 0.00 0.00 74 1016.3
20260506023800 20 182 0.0 0.0 0.00 0.00 0.00 73 1016.5
20260506023258 20 182 0.0 0.0 0.00 0.00 0.00 73 1016.5
20260506022754 20 182 0.0 0.0 0.00 0.00 0.00 72 1016.5
20260506022252 20 178 0.0 0.0 0.00 0.00 0.00 73 1016.5
20260506021750 20 175 0.0 0.0 0.00 0.00 0.00 73 1016.5
20260506021246 20 175 0.0 0.0 0.00 0.00 0.00 73 1016.3
20260506020743 20 175 0.0 0.0 0.00 0.00 0.00 73 1016.5
20260506020241 20 175 0.0 0.0 0.00 0.00 0.00 73 1016.7
20260506015738 20 175 0.0 0.0 0.00 0.00 0.00 74 1016.4
20260506015236 20 175 0.0 0.0 0.00 0.00 0.00 74 1016.3
20260506014732 20 175 0.0 0.0 0.00 0.00 0.00 74 1016.2
20260506014229 20 175 0.0 0.0 0.00 0.00 0.00 74 1015.9
20260506013726 20 174 0.0 0.0 0.00 0.00 0.00 74 1016.2
20260506013223 20 175 0.0 0.0 0.00 0.00 0.00 74 1016.1
20260506012719 20 174 0.0 0.0 0.00 0.00 0.00 74 1016.2
20260506012217 20 175 0.0 0.0 0.00 0.00 0.00 73 1016.0
20260506011714 20 174 0.0 0.0 0.00 0.00 0.00 73 1016.3
20260506011210 20 175 0.0 0.0 0.00 0.00 0.00 73 1016.3
20260506010708 20 175 0.0 0.0 0.00 0.00 0.00 73 1016.3
20260506010205 20 175 0.0 0.0 0.00 0.00 0.00 72 1015.9
20260506005702 20 172 0.0 0.0 0.00 0.00 0.00 71 1015.8
20260506005159 20 156 0.0 0.0 0.00 0.00 0.00 70 1015.8
20260506004655 20 147 0.0 0.0 0.00 0.00 0.00 70 1016.0
20260506004153 20 146 0.0 0.0 0.00 0.00 0.00 70 1015.9
20260506003649 20 168 0.0 0.0 0.00 0.00 0.00 71 1015.9
20260506003145 20 174 0.0 0.0 0.00 0.00 0.00 72 1016.2
20260506002641 20 175 0.0 0.0 0.00 0.00 0.00 72 1016.1
20260506002138 20 175 0.0 0.0 0.00 0.00 0.00 72 1016.1
20260506001633 20 175 0.0 0.0 0.00 0.00 0.00 72 1016.3
20260506001131 20 174 0.0 0.0 0.00 0.00 0.00 72 1016.1
20260506000628 21 174 0.0 0.0 0.00 0.00 0.00 72 1016.1
20260506000125 21 174 0.0 0.0 0.00 0.00 0.00 71 1016.2
20260505235623 21 161 0.0 0.0 0.00 0.00 0.00 71 1016.2
20260505235120 21 138 0.0 0.0 0.00 0.00 0.00 71 1016.0
20260505234617 21 190 0.0 0.0 0.00 0.00 0.00 70 1015.9
20260505234114 21 190 0.0 0.0 0.00 0.00 0.00 69 1015.9
20260505233611 21 187 0.0 0.0 0.00 0.00 0.00 69 1015.8
20260505233108 21 186 0.0 0.0 0.00 0.00 0.00 68 1016.1
20260505232606 21 144 0.0 0.0 0.00 0.00 0.00 67 1015.7
20260505232104 21 175 0.0 0.0 0.00 0.00 0.00 67 1015.7
20260505231600 21 172 0.0 0.0 0.00 0.00 0.00 66 1016.0
20260505231059 21 151 0.0 0.0 0.00 0.00 0.00 66 1015.9
20260505230556 21 151 0.0 0.0 0.00 0.00 0.00 65 1016.1
20260505230052 22 149 0.0 0.0 0.00 0.00 0.00 67 1015.9
20260505225549 22 156 0.0 0.0 0.00 0.00 0.00 67 1016.1
20260505225045 22 156 0.0 0.0 0.00 0.00 0.00 67 1016.0
20260505224542 22 175 0.0 0.0 0.00 0.00 0.00 65 1016.0
20260505224040 22 155 0.0 0.0 0.00 0.00 0.00 64 1016.1
20260505223537 22 194 0.0 0.0 0.00 0.00 0.00 66 1016.2
20260505223033 22 201 0.0 0.0 0.00 0.00 0.00 65 1016.2
20260505222529 22 196 0.0 0.0 0.00 0.00 0.00 64 1016.1
20260505222025 22 204 0.0 0.0 0.00 0.00 0.00 63 1016.3
20260505221523 22 204 0.0 0.0 0.00 0.00 0.00 63 1016.1
20260505221019 23 195 0.0 0.0 0.00 0.00 0.00 61 1016.2
20260505220517 23 204 0.0 0.0 0.00 0.00 0.00 60 1016.0
20260505220014 23 204 0.0 0.0 0.00 0.00 0.00 62 1016.3
20260505215512 23 203 0.0 0.0 0.00 0.00 0.00 60 1016.2
20260505215010 23 203 0.0 0.0 0.00 0.00 0.00 58 1016.2
20260505214508 24 196 0.0 0.0 0.00 0.00 0.00 59 1016.3
20260505214004 25 195 0.0 0.0 0.00 0.00 0.00 57 1016.5
20260505213502 24 193 0.0 0.0 0.00 0.00 0.00 59 1016.4
20260505212958 24 197 0.0 0.0 0.00 0.00 0.00 58 1016.6
20260505212455 24 175 0.0 0.0 0.00 0.00 0.00 56 1016.5
20260505211951 25 219 0.0 0.0 0.00 0.00 0.00 58 1016.4
20260505211449 25 220 0.0 0.0 0.00 0.00 0.00 56 1016.3
20260505210945 24 217 0.0 0.0 0.00 0.00 0.00 58 1016.2
20260505210442 24 218 0.0 0.0 0.00 0.00 0.00 59 1016.3
20260505205939 23 210 0.0 0.0 0.00 0.00 0.00 60 1016.0
20260505205438 23 217 0.0 0.0 0.00 0.00 0.00 61 1015.9
20260505204934 24 204 0.0 0.0 0.00 0.00 0.00 61 1016.2
20260505204432 25 202 0.0 0.0 0.00 0.00 0.00 59 1016.2
20260505203929 25 191 0.0 0.0 0.00 0.00 0.00 59 1016.2
20260505203425 25 214 0.0 0.0 0.00 0.00 0.00 59 1016.3
20260505202921 25 232 0.0 0.0 0.00 0.00 0.00 57 1016.2
20260505202418 25 239 0.0 0.0 0.00 0.00 0.00 56 1016.4
20260505201915 25 237 0.0 0.0 0.00 0.00 0.00 57 1016.2
20260505201412 25 205 0.0 0.0 0.00 0.00 0.00 57 1016.5
20260505200910 25 225 0.0 0.0 0.00 0.00 0.00 57 1016.4
20260505200407 25 220 0.0 0.0 0.00 0.00 0.00 58 1016.3
20260505195902 25 209 0.0 0.0 0.00 0.00 0.00 57 1016.8
20260505195400 25 209 0.0 0.0 0.00 0.00 0.00 58 1016.9
20260505194857 25 195 0.0 0.0 0.00 0.00 0.00 57 1017.0
20260505194354 26 196 0.0 0.0 0.00 0.00 0.00 55 1017.0
20260505193854 26 197 0.0 0.0 0.00 0.00 0.00 54 1017.2
20260505193353 26 197 0.0 0.0 0.00 0.00 0.00 54 1017.4
20260505192850 26 196 0.0 0.0 0.00 0.00 0.00 52 1017.3
20260505192348 26 200 0.0 0.0 0.00 0.00 0.00 52 1017.5
20260505191845 26 210 0.0 0.0 0.00 0.00 0.00 52 1017.6
20260505191344 26 206 0.0 0.0 0.00 0.00 0.00 54 1017.7
20260505190840 26 198 0.0 0.0 0.00 0.00 0.00 52 1017.7
20260505190336 26 194 0.0 0.0 0.00 0.00 0.00 52 1017.6
20260505185831 26 187 0.0 0.0 0.00 0.00 0.00 53 1017.5
20260505185328 26 187 0.0 0.0 0.00 0.00 0.00 55 1017.5
20260505184824 26 213 1.6 3.2 0.00 0.00 0.00 52 1017.6
20260505184321 26 197 0.0 0.0 0.00 0.00 0.00 56 1017.8
20260505183818 26 220 0.0 0.0 0.00 0.00 0.00 53 1017.5
20260505183315 26 219 0.0 0.0 0.00 0.00 0.00 56 1017.3
20260505182812 25 225 0.0 0.0 0.00 0.00 0.00 53 1017.3
20260505182309 26 211 0.0 0.0 0.00 0.00 0.00 54 1017.3
20260505181806 26 210 0.0 0.0 0.00 0.00 0.00 53 1017.4
20260505181303 26 210 0.0 0.0 0.00 0.00 0.00 55 1017.6
20260505180759 25 200 0.0 0.0 0.00 0.00 0.00 57 1017.5
20260505180256 26 206 0.0 0.0 0.00 0.00 0.00 52 1017.5
20260505175752 25 227 0.0 0.0 0.00 0.00 0.00 55 1017.4
20260505175249 26 218 0.0 0.0 0.00 0.00 0.00 53 1017.7
20260505174745 26 228 0.0 0.0 0.00 0.00 0.00 52 1017.2
20260505174243 26 226 0.0 0.0 0.00 0.00 0.00 52 1017.1
20260505173738 26 228 0.0 0.0 0.00 0.00 0.00 53 1017.3
20260505173235 26 228 0.0 0.0 0.00 0.00 0.00 56 1017.5
20260505172732 26 228 0.0 0.0 0.00 0.00 0.00 55 1017.6
20260505172229 26 225 0.0 0.0 0.00 0.00 0.00 53 1017.8
20260505171729 26 221 0.0 0.0 0.00 0.00 0.00 55 1017.9
20260505171227 25 211 0.0 0.0 0.00 0.00 0.00 58 1018.0
20260505170723 25 217 0.0 0.0 0.00 0.00 0.00 57 1017.6
20260505170220 26 222 0.0 0.0 0.00 0.00 0.00 56 1018.0
20260505165715 26 211 0.0 0.0 0.00 0.00 0.00 56 1017.8
20260505165212 25 208 0.0 0.0 0.00 0.00 0.00 57 1018.2
20260505164707 25 197 0.0 0.0 0.00 0.00 0.00 57 1018.1
20260505164204 25 196 0.0 0.0 0.00 0.00 0.00 55 1018.2
20260505163703 25 192 0.0 0.0 0.00 0.00 0.00 60 1018.2
20260505163201 25 196 0.0 0.0 0.00 0.00 0.00 59 1018.0
20260505162658 25 193 0.0 0.0 0.00 0.00 0.00 60 1018.1
20260505162155 24 193 0.0 0.0 0.00 0.00 0.00 60 1018.2
20260505161652 24 220 0.0 0.0 0.00 0.00 0.00 60 1018.2
20260505161149 24 216 0.0 0.0 0.00 0.00 0.00 61 1018.3
20260505160647 23 214 0.0 0.0 0.00 0.00 0.00 62 1018.2
20260505160144 24 214 0.0 0.0 0.00 0.00 0.00 61 1018.3